| time (UTC) | temp C | wind direction | speed KPH | gust KPH | rain 1hr cm | rain 24hr cm | rain mn cm | humidity % | barometer mb |
| 20260906163018 | 24 | 101 | 9.7 | 24.1 | 0.00 | 0.00 | 0.00 | 74 | 1017.0 |
| 20260906161510 | 24 | 144 | 12.9 | 20.9 | 0.00 | 0.00 | 0.00 | 73 | 1017.3 |
| 20260906160001 | 24 | 128 | 11.3 | 19.3 | 0.00 | 0.00 | 0.00 | 77 | 1017.5 |
| 20260906154511 | 24 | 184 | 11.3 | 20.9 | 0.00 | 0.00 | 0.00 | 78 | 1017.4 |
| 20260906153128 | 23 | 134 | 14.5 | 19.3 | 0.00 | 0.00 | 0.00 | 80 | 1017.2 |
| 20260906151628 | 23 | 115 | 8.0 | 17.7 | 0.00 | 0.00 | 0.00 | 81 | 1017.5 |
| 20260906150125 | 23 | 155 | 8.0 | 16.1 | 0.00 | 0.00 | 0.00 | 83 | 1017.4 |
| 20260906144513 | 22 | 88 | 6.4 | 14.5 | 0.00 | 0.00 | 0.00 | 86 | 1017.3 |
| 20260906143013 | 21 | 119 | 8.0 | 12.9 | 0.00 | 0.00 | 0.00 | 88 | 1017.1 |
| 20260906141521 | 21 | 103 | 6.4 | 17.7 | 0.00 | 0.00 | 0.00 | 88 | 1017.1 |
| 20260906140008 | 21 | 136 | 9.7 | 14.5 | 0.00 | 0.00 | 0.00 | 88 | 1017.2 |
| 20260906134636 | 20 | 97 | 4.8 | 12.9 | 0.00 | 0.00 | 0.00 | 92 | 1017.4 |
| 20260906133001 | 19 | 121 | 6.4 | 11.3 | 0.00 | 0.00 | 0.00 | 93 | 1017.3 |
| 20260906131515 | 18 | 116 | 8.0 | 16.1 | 0.00 | 0.00 | 0.00 | 93 | 1017.3 |
| 20260906130150 | 18 | 123 | 6.4 | 14.5 | 0.00 | 0.00 | 0.00 | 94 | 1017.3 |
| 20260906124623 | 18 | 82 | 8.0 | 12.9 | 0.00 | 0.00 | 0.00 | 94 | 1017.1 |
| 20260906123010 | 18 | 107 | 9.7 | 14.5 | 0.00 | 0.00 | 0.00 | 94 | 1017.0 |
| 20260906121512 | 18 | 109 | 4.8 | 11.3 | 0.00 | 0.00 | 0.00 | 94 | 1017.0 |
| 20260906120129 | 17 | 94 | 3.2 | 6.4 | 0.00 | 0.00 | 0.00 | 93 | 1016.8 |
| 20260906114507 | 17 | 93 | 3.2 | 4.8 | 0.00 | 0.00 | 0.00 | 93 | 1016.9 |
| 20260906113123 | 17 | 93 | 0.0 | 4.8 | 0.00 | 0.00 | 0.00 | 93 | 1016.9 |
| 20260906111509 | 17 | 93 | 0.0 | 3.2 | 0.00 | 0.00 | 0.00 | 93 | 1016.8 |
| 20260906110011 | 17 | 93 | 1.6 | 6.4 | 0.00 | 0.00 | 0.00 | 93 | 1016.5 |
| 20260906104511 | 17 | 93 | 1.6 | 4.8 | 0.00 | 0.00 | 0.00 | 93 | 1016.4 |
| 20260906103128 | 17 | 135 | 1.6 | 6.4 | 0.00 | 0.00 | 0.00 | 93 | 1016.2 |
| 20260906101503 | 17 | 153 | 1.6 | 11.3 | 0.00 | 0.00 | 0.00 | 93 | 1016.1 |
| 20260906100022 | 17 | 100 | 1.6 | 9.7 | 0.00 | 0.00 | 0.00 | 93 | 1016.0 |
| 20260906094515 | 17 | 78 | 4.8 | 8.0 | 0.00 | 0.00 | 0.00 | 93 | 1015.7 |
| 20260906093016 | 17 | 67 | 1.6 | 8.0 | 0.00 | 0.00 | 0.00 | 93 | 1015.7 |
| 20260906091514 | 17 | 67 | 1.6 | 4.8 | 0.00 | 0.00 | 0.00 | 92 | 1015.7 |
| 20260906090012 | 17 | 67 | 1.6 | 4.8 | 0.00 | 0.00 | 0.00 | 92 | 1015.8 |
| 20260906084515 | 18 | 57 | 0.0 | 4.8 | 0.00 | 0.00 | 0.00 | 92 | 1015.9 |
| 20260906083016 | 18 | 53 | 1.6 | 6.4 | 0.00 | 0.00 | 0.00 | 92 | 1016.0 |
| 20260906081501 | 18 | 53 | 3.2 | 4.8 | 0.00 | 0.00 | 0.00 | 92 | 1015.7 |
| 20260906080125 | 17 | 92 | 1.6 | 6.4 | 0.00 | 0.00 | 0.00 | 92 | 1015.5 |
| 20260906074513 | 18 | 55 | 1.6 | 4.8 | 0.00 | 0.00 | 0.00 | 92 | 1015.6 |
| 20260906073128 | 18 | 50 | 3.2 | 8.0 | 0.00 | 0.00 | 0.00 | 92 | 1015.7 |
| 20260906071630 | 18 | 82 | 3.2 | 6.4 | 0.00 | 0.00 | 0.00 | 91 | 1015.9 |
| 20260906070015 | 18 | 82 | 0.0 | 3.2 | 0.00 | 0.00 | 0.00 | 91 | 1016.1 |
| 20260906064514 | 18 | 82 | 1.6 | 8.0 | 0.00 | 0.00 | 0.00 | 90 | 1016.3 |
| 20260906063126 | 18 | 70 | 3.2 | 9.7 | 0.00 | 0.00 | 0.00 | 90 | 1016.2 |
| 20260906061516 | 18 | 75 | 3.2 | 8.0 | 0.00 | 0.00 | 0.00 | 90 | 1016.0 |
| 20260906060016 | 18 | 87 | 3.2 | 6.4 | 0.00 | 0.00 | 0.00 | 90 | 1016.1 |
| 20260906054624 | 19 | 92 | 3.2 | 9.7 | 0.00 | 0.00 | 0.00 | 89 | 1016.0 |
| 20260906053136 | 19 | 87 | 1.6 | 6.4 | 0.00 | 0.00 | 0.00 | 89 | 1015.9 |
| 20260906051627 | 19 | 87 | 1.6 | 4.8 | 0.00 | 0.00 | 0.00 | 88 | 1016.0 |
| 20260906050009 | 20 | 87 | 3.2 | 6.4 | 0.00 | 0.00 | 0.00 | 87 | 1016.2 |
| 20260906044515 | 20 | 87 | 3.2 | 6.4 | 0.00 | 0.00 | 0.00 | 87 | 1016.2 |
| 20260906043022 | 20 | 87 | 1.6 | 6.4 | 0.00 | 0.00 | 0.00 | 87 | 1016.0 |
| 20260906041514 | 20 | 87 | 0.0 | 6.4 | 0.00 | 0.00 | 0.00 | 86 | 1016.1 |
| 20260906040004 | 20 | 87 | 1.6 | 4.8 | 0.00 | 0.00 | 0.00 | 85 | 1016.1 |
| 20260906034625 | 20 | 92 | 3.2 | 9.7 | 0.00 | 0.00 | 0.00 | 85 | 1016.1 |
| 20260906033006 | 21 | 88 | 3.2 | 4.8 | 0.00 | 0.00 | 0.00 | 85 | 1016.1 |
| 20260906031512 | 21 | 88 | 0.0 | 4.8 | 0.00 | 0.00 | 0.00 | 84 | 1016.2 |
| 20260906030007 | 21 | 84 | 1.6 | 6.4 | 0.00 | 0.00 | 0.00 | 84 | 1016.1 |
| 20260906024507 | 21 | 76 | 3.2 | 12.9 | 0.00 | 0.00 | 0.00 | 84 | 1016.1 |
| 20260906023015 | 21 | 34 | 3.2 | 11.3 | 0.00 | 0.00 | 0.00 | 83 | 1016.2 |
| 20260906021510 | 21 | 61 | 3.2 | 9.7 | 0.00 | 0.00 | 0.00 | 83 | 1016.1 |
| 20260906020011 | 22 | 49 | 3.2 | 8.0 | 0.00 | 0.00 | 0.00 | 82 | 1015.7 |
| 20260906014513 | 22 | 50 | 1.6 | 6.4 | 0.00 | 0.00 | 0.00 | 83 | 1015.4 |
| 20260906013008 | 21 | 15 | 1.6 | 3.2 | 0.00 | 0.00 | 0.00 | 83 | 1014.9 |
| 20260906011509 | 22 | 101 | 0.0 | 3.2 | 0.00 | 0.00 | 0.00 | 80 | 1014.6 |
| 20260906010128 | 22 | 101 | 0.0 | 1.6 | 0.00 | 0.00 | 0.00 | 79 | 1014.2 |
| 20260906004627 | 23 | 101 | 1.6 | 4.8 | 0.00 | 0.00 | 0.00 | 77 | 1013.6 |
| 20260906003021 | 23 | 78 | 4.8 | 9.7 | 0.00 | 0.00 | 0.00 | 76 | 1013.1 |
| 20260906001510 | 24 | 97 | 4.8 | 9.7 | 0.00 | 0.00 | 0.00 | 74 | 1013.2 |
| 20260906000009 | 25 | 88 | 3.2 | 9.7 | 0.00 | 0.00 | 0.00 | 71 | 1013.3 |
| 20260905234622 | 25 | 78 | 4.8 | 16.1 | 0.00 | 0.00 | 0.00 | 69 | 1013.2 |
| 20260905233002 | 26 | 42 | 9.7 | 17.7 | 0.00 | 0.00 | 0.00 | 70 | 1013.2 |
| 20260905231513 | 26 | 40 | 9.7 | 22.5 | 0.00 | 0.00 | 0.00 | 70 | 1013.3 |
| 20260905230132 | 26 | 48 | 6.4 | 20.9 | 0.00 | 0.00 | 0.00 | 69 | 1013.6 |
| 20260905224519 | 26 | 34 | 12.9 | 20.9 | 0.00 | 0.00 | 0.00 | 69 | 1013.9 |
| 20260905223003 | 26 | 31 | 4.8 | 20.9 | 0.00 | 0.00 | 0.00 | 72 | 1013.8 |
| 20260905221512 | 26 | 66 | 6.4 | 19.3 | 0.00 | 0.00 | 0.00 | 71 | 1013.8 |
| 20260905220011 | 25 | 60 | 6.4 | 17.7 | 0.00 | 0.00 | 0.00 | 72 | 1014.1 |
| 20260905214507 | 25 | 57 | 11.3 | 19.3 | 0.00 | 0.00 | 0.00 | 71 | 1014.3 |
| 20260905213012 | 26 | 61 | 9.7 | 19.3 | 0.00 | 0.00 | 0.00 | 71 | 1014.3 |
| 20260905211511 | 26 | 15 | 9.7 | 17.7 | 0.00 | 0.00 | 0.00 | 71 | 1014.3 |
| 20260905210008 | 25 | 60 | 11.3 | 20.9 | 0.00 | 0.00 | 0.00 | 71 | 1014.5 |
| 20260905204512 | 25 | 31 | 4.8 | 16.1 | 0.00 | 0.00 | 0.00 | 73 | 1014.9 |
| 20260905203124 | 25 | 63 | 4.8 | 14.5 | 0.00 | 0.00 | 0.00 | 73 | 1015.3 |
| 20260905201518 | 25 | 34 | 4.8 | 12.9 | 0.00 | 0.00 | 0.00 | 72 | 1015.5 |
| 20260905200023 | 24 | 47 | 4.8 | 14.5 | 0.00 | 0.00 | 0.00 | 75 | 1015.6 |
| 20260905194627 | 24 | 48 | 1.6 | 9.7 | 0.00 | 0.00 | 0.00 | 74 | 1016.0 |
| 20260905193126 | 23 | 56 | 4.8 | 11.3 | 0.00 | 0.00 | 0.00 | 77 | 1015.9 |
| 20260905191626 | 23 | 71 | 1.6 | 11.3 | 0.00 | 0.00 | 0.00 | 76 | 1015.9 |
| 20260905190011 | 23 | 34 | 3.2 | 8.0 | 0.00 | 0.00 | 0.00 | 78 | 1016.1 |
| 20260905184519 | 23 | 77 | 3.2 | 9.7 | 0.00 | 0.00 | 0.00 | 80 | 1016.1 |
| 20260905183010 | 22 | 55 | 1.6 | 9.7 | 0.00 | 0.00 | 0.00 | 79 | 1016.1 |
| 20260905181512 | 22 | 138 | 6.4 | 11.3 | 0.00 | 0.00 | 0.00 | 82 | 1016.1 |
| 20260905180140 | 22 | 111 | 8.0 | 12.9 | 0.00 | 0.00 | 0.00 | 81 | 1016.0 |
| 20260905174524 | 22 | 48 | 4.8 | 9.7 | 0.00 | 0.00 | 0.00 | 82 | 1016.0 |
| 20260905173016 | 22 | 123 | 9.7 | 17.7 | 0.00 | 0.00 | 0.00 | 83 | 1016.3 |
| 20260905171508 | 22 | 69 | 6.4 | 16.1 | 0.00 | 0.00 | 0.00 | 83 | 1016.3 |
| 20260905170132 | 22 | 5 | 4.8 | 9.7 | 0.00 | 0.00 | 0.00 | 83 | 1016.4 |
| 20260905164626 | 21 | 16 | 1.6 | 8.0 | 0.00 | 0.00 | 0.00 | 84 | 1016.5 |